Regional Weather Roundup
Issued by NWS State College, PA

Home | Current Version | Previous Version | Text Only | Print | Product List | Glossary On
Versions: 1 2 3 4 5 6 7 8 9 10 11 12 13 14 15 16 17 18 19 20 21 22 23 24 25 26 27 28 29 30 31 32 33 34 35 36 37 38 39 40 41 42 43 44 45 46 47 48 49 50
000
ASUS41 KCTP 190003
RWRCTP

REGIONAL WEATHER ROUNDUP
NATIONAL WEATHER SERVICE STATE COLLEGE PA
800 PM EDT THU SEP 18 2014

Note: "fair" indicates few or no clouds below 12,000 feet with no
significant weather and/or obstructions to visibility.

* = STATION THAT DOES NOT REPORT PRECIPITATION /E.G. RAIN...SNOW...ETC/
    THUNDER OR FOG.

PAZ002>004-007>009-013>016-020>023-029>032-190100-
WESTERN PENNSYLVANIA

CITY           SKY/WX    TMP DP  RH WIND       PRES   REMARKS
ERIE           PTCLDY    58  49  72 NE3       30.13R
MEADVILLE      CLEAR     54  48  80 N3        30.14R
FRANKLIN*      CLEAR     54  46  76 N6        30.15R
NEW CASTLE     NOT AVBL
BEAVER COUNTY  CLEAR     61  50  67 N6        30.12R
BUTLER*        CLEAR     59  46  63 CALM      30.13R
PITTSBURGH INT MOCLDY    65  46  50 N8        30.10R
PITTSBURGH     CLEAR     64  42  44 E3        30.10R
INDIANA*       MOCLDY    57  52  82 CALM      30.15R
LATROBE        CLEAR     57  52  82 CALM      30.11R
WASHINGTON CO* CLEAR     54  48  82 CALM      30.11S
$$

PAZ004>006-010>012-017>019-024>028-033>037-041-042-045-046-049>053-190100-
CENTRAL PENNSYLVANIA

CITY           SKY/WX    TMP DP  RH WIND       PRES   REMARKS
BRADFORD       CLEAR     51  45  79 N5        30.13R
DUBOIS         PTCLDY    58  46  64 N6        30.10R
CLEARFIELD     CLOUDY    57  50  77 N5        30.10R
JOHNSTOWN      CLEAR     57  42  57 W3        30.12R
ALTOONA        CLEAR     59  45  59 CALM      30.10R
STATE COLLEGE  CLEAR     61  48  63 NW6       30.09R
WILLIAMSPORT   MOCLDY    58  51  78 CALM      30.06R
SELINSGROVE    CLEAR     55  52  89 CALM      30.06R
FT INDIANTOWN  CLEAR     59  49  70 CALM      30.06R
CAPITAL CITY   CLEAR     61  50  67 SW5       30.05R
HARRISBURG     CLEAR     61  53  75 CALM      30.05R
YORK           CLEAR     55  49  80 CALM      30.06R
$$

PAZ038>040-043-044-047-048-054-055-060>062-067>071-190100-
EASTERN PENNSYLVANIA

CITY           SKY/WX    TMP DP  RH WIND       PRES   REMARKS
SCRANTON       CLEAR     60  44  55 VRB3      30.07R
MOUNT POCONO   CLEAR     52  45  77 N5        30.08R
ALLENTOWN      CLEAR     64  42  44 N3        30.04R
QUAKERTOWN*    CLEAR     59  50  72 CALM      30.05R
READING        CLEAR     65  46  50 CALM      30.03R
LANCASTER      CLEAR     62  44  51 NW3       30.05R
COATESVILLE    PTCLDY    63  55  77 CALM      30.06R
POTTSTOWN      CLEAR     60  51  72 CALM      30.05R
BLUE BELL      CLEAR     61  55  82 CALM      30.03R
DOYLESTOWN     PTCLDY    63  48  58 CALM      30.03R
WILLOW GROVE   NOT AVBL
NORTH PHILA    PTCLDY    68  52  56 W7        30.04R
PHILADELPHIA   PTCLDY    69  55  60 SW8       30.04R
$$



USA.gov is the U.S. government's official web portal to all federal, state and local government web resources and services.